[[{"header":{"parameterUnit":"m.s-1","parameterCategory":2,"la1":30.2991,"la2":30.254,"lo1":-89.0895,"lo2":-89.0444,"dy":0.0017,"dx":0.0017,"nx":28,"ny":28,"refTime":"2025-02-26T09:00:00:Z","depth":"0","parameterNumber":2,"parameterNumberName":"U-component_of_CURRENTS"},"data":[0,0,0,0,0,0,0,0,0,0,0,0,0,0,0,0,0,0,0,0,0,0,0,0,0,0,0,0,0,0,0,0,0,0,0,0,0,0,0,0,0,0,0,0,0,0,0,0,0,0,0,0,0,0,0,0,0,0,-0.2327,-0.2327,0,-0.2353,-0.2353,-0.2353,-0.2339,-0.2338,-0.2338,-0.2337,-0.2306,-0.2306,-0.2306,0,0,0,0,0,0,0,0,0,0,0,0,0,-0.2246,-0.2247,-0.2327,-0.2327,-0.2328,-0.2353,-0.2353,-0.2353,-0.2339,-0.2338,-0.2337,-0.2337,-0.2306,-0.2306,-0.2306,0,0,0,0,0,0,0,0,0,0,0,0,0,-0.2275,-0.2248,-0.2326,-0.2325,-0.2326,-0.2353,-0.2353,-0.2353,-0.2339,-0.2338,-0.2337,-0.2337,-0.2307,-0.2306,-0.2306,-0.2317,0,0,-0.2304,-0.2304,0,0,0,0,0,0,0,0,-0.2274,-0.2278,-0.2325,-0.2325,-0.2326,-0.2344,-0.2314,-0.2339,-0.2339,-0.2331,-0.2337,-0.2336,-0.2316,-0.2315,-0.2318,-0.2316,-0.2314,-0.2304,-0.2304,-0.2303,-0.2303,0,0,0,0,0,0,0,-0.2272,-0.2277,-0.2334,-0.2326,-0.2326,-0.2318,-0.2321,-0.2318,-0.2324,-0.2332,-0.2331,-0.2339,-0.2315,-0.2319,-0.2317,-0.2314,-0.2304,-0.2303,-0.2303,-0.2303,-0.228,-0.228,0,0,0,0,0,0,-0.2276,-0.2275,-0.2334,-0.2335,-0.23,-0.232,-0.2323,-0.2337,-0.2326,-0.2324,-0.2339,-0.2338,-0.232,-0.2318,-0.2316,-0.231,-0.2303,-0.2303,-0.2303,-0.228,-0.228,-0.2279,0,0,0,0,0,0,-0.2274,-0.2281,-0.2333,-0.2307,-0.2313,-0.2323,-0.2337,-0.2338,-0.234,-0.2332,-0.2329,-0.2341,-0.232,-0.2317,-0.231,-0.2309,-0.2303,-0.2302,-0.2281,-0.228,-0.228,-0.231,0,0,0,0,0,0,-0.2272,-0.228,-0.2285,-0.2308,-0.2315,-0.2348,-0.2338,-0.2339,-0.2347,-0.2345,-0.2333,-0.233,-0.2319,-0.231,-0.2309,-0.2308,-0.2302,-0.2281,-0.228,-0.228,-0.2309,-0.231,-0.2311,0,0,0,0,0,-0.2269,-0.2282,-0.2286,-0.2292,-0.2324,-0.2349,-0.2351,-0.2353,-0.2348,-0.2351,-0.234,-0.233,-0.2305,-0.231,-0.2309,-0.2308,-0.2281,-0.228,-0.228,-0.2308,-0.231,-0.2311,0,0,0,0,0,0,-0.2247,-0.2283,-0.2287,-0.231,-0.2327,-0.2347,-0.235,-0.2356,-0.2352,-0.2346,-0.2334,-0.233,-0.2322,-0.231,-0.2316,-0.2297,-0.2289,-0.2288,-0.2311,-0.2312,-0.2313,-0.2305,-0.2301,0,0,0,0,0,-0.2248,-0.2264,-0.2296,-0.2309,-0.2321,-0.2336,-0.2344,-0.235,-0.2355,-0.2352,-0.2345,-0.233,-0.232,-0.2312,-0.2303,-0.2298,-0.2281,-0.2292,-0.2294,-0.2295,-0.2286,-0.2279,-0.2279,-0.2277,-0.2277,-0.2277,0,0,-0.224,-0.2262,-0.227,-0.2305,-0.2316,-0.2334,-0.2338,-0.2355,-0.236,-0.2349,-0.2345,-0.2339,-0.232,-0.2313,-0.2307,-0.2301,-0.2283,-0.2294,-0.2295,-0.2285,-0.2278,-0.2279,-0.2279,-0.2277,-0.2277,-0.2277,0,0,-0.2236,-0.2257,-0.227,-0.2289,-0.2316,-0.233,-0.2337,-0.236,-0.236,-0.2365,-0.2353,-0.2344,-0.2333,-0.2319,-0.2309,-0.231,-0.2293,-0.2307,-0.2305,-0.2299,-0.23,-0.23,-0.2268,-0.2265,-0.2304,-0.2304,-0.2304,0,-0.2225,-0.2248,-0.2274,-0.2294,-0.2306,-0.2329,-0.2342,-0.2351,-0.2366,-0.2365,-0.2362,-0.2345,-0.2332,-0.2319,-0.2315,-0.2313,-0.23,-0.2305,-0.2302,-0.2302,-0.2301,-0.2269,-0.2265,-0.2305,-0.2305,-0.2305,-0.2305,0,-0.223,-0.2249,-0.2259,-0.2289,-0.2306,-0.2322,-0.2347,-0.2356,-0.236,-0.2368,-0.2362,-0.235,-0.2336,-0.2333,-0.2323,-0.2313,-0.23,-0.231,-0.2303,-0.2304,-0.2269,-0.2264,-0.2307,-0.2307,-0.2306,-0.2306,0,0,-0.2199,-0.2252,-0.2252,-0.2264,-0.2305,-0.2318,-0.2334,-0.2352,-0.2354,-0.2363,-0.236,-0.2345,-0.2343,-0.2331,-0.2323,-0.2314,-0.2298,-0.231,-0.2309,-0.2284,-0.2268,-0.2159,-0.2144,-0.2316,-0.2316,-0.2316,-0.2241,0,-0.2189,-0.2218,-0.2249,-0.2265,-0.2281,-0.2313,-0.2324,-0.2342,-0.2353,-0.2357,-0.2352,-0.2345,-0.2342,-0.2334,-0.2328,-0.2316,-0.2289,-0.2315,-0.2264,-0.2261,-0.2171,-0.2137,-0.2055,-0.1973,-0.2237,-0.2236,-0.2235,0,-0.2176,-0.2199,-0.2217,-0.2254,-0.2263,-0.2274,-0.2293,-0.2309,-0.233,-0.2338,-0.2341,-0.2344,-0.2333,-0.2329,-0.23,-0.2321,-0.2285,-0.2268,-0.2266,-0.2149,-0.2145,-0.2016,-0.1955,-0.1948,-0.2228,-0.2229,-0.223,0,-0.2125,-0.217,-0.218,-0.2194,-0.2243,-0.2248,-0.2267,-0.2294,-0.2302,-0.2323,-0.2326,-0.2331,-0.2317,-0.2305,-0.2263,-0.2289,-0.2216,-0.2252,-0.211,-0.2102,-0.201,-0.1993,-0.1939,-0.2203,-0.2203,-0.2203,-0.2204,0,-0.2098,-0.2102,-0.2155,-0.216,-0.2162,-0.2211,-0.2212,-0.2236,-0.2266,-0.2268,-0.2305,-0.2297,-0.2311,-0.2276,-0.2254,-0.215,-0.2204,-0.2085,-0.207,-0.2014,-0.2,-0.1971,-0.2005,-0.2201,-0.2201,-0.2202,-0.2202,0,-0.203,-0.2072,-0.2081,-0.2128,-0.2137,-0.2134,-0.2172,-0.2174,-0.2218,-0.2221,-0.2226,-0.2259,-0.2215,-0.2191,-0.2149,-0.2107,-0.1999,-0.1981,-0.1895,-0.1869,-0.1738,-0.1777,-0.1691,-0.1642,-0.1831,-0.1828,-0.1825,0,-0.1994,-0.1995,-0.2036,-0.2034,-0.2049,-0.2062,-0.2067,-0.2128,-0.2139,-0.2189,-0.218,-0.2153,-0.2099,-0.1989,-0.1914,-0.1815,-0.1848,-0.1685,-0.1712,-0.1688,-0.1723,-0.1767,-0.1736,-0.1607,-0.1602,-0.1599,-0.1596,0,-0.1913,-0.193,-0.1937,-0.1939,-0.1943,-0.1952,-0.1972,-0.1979,-0.2049,-0.2055,-0.2047,-0.2009,-0.1904,-0.177,-0.1635,-0.1582,-0.1652,-0.1606,-0.162,-0.1553,-0.1562,-0.152,-0.1693,-0.1565,-0.1568,-0.157,-0.1572,-0.1573,-0.184,-0.1817,-0.1828,-0.1815,-0.1825,-0.1816,-0.1782,-0.1831,-0.1827,-0.1821,-0.1877,-0.1788,-0.1691,-0.1489,-0.142,-0.1298,-0.1385,-0.1288,-0.1339,-0.1387,-0.1326,-0.14,-0.1232,-0.1233,-0.1234,-0.1235,-0.1236,0,-0.1742,-0.1715,-0.17,-0.168,-0.164,-0.1688,-0.169,-0.164,-0.1597,-0.1636,-0.1604,-0.1498,-0.135,-0.1278,-0.1149,-0.1077,-0.1077,-0.1068,-0.1146,-0.1129,-0.1215,-0.119,-0.0959,-0.0959,-0.0959,-0.0959,-0.0959,-0.0959,-0.17,-0.1626,-0.1608,-0.1493,-0.1474,-0.1377,-0.1348,-0.1311,-0.1302,-0.1226,-0.1196,-0.1159,-0.114,-0.12,-0.1088,-0.1021,-0.1029,-0.098,-0.1018,-0.1128,-0.1154,-0.118,-0.1164,-0.0931,-0.0931,-0.089,-0.089,-0.089]},{"header":{"parameterUnit":"m.s-1","parameterCategory":2,"la1":30.2991,"la2":30.254,"lo1":-89.0895,"lo2":-89.0444,"dy":0.0017,"dx":0.0017,"nx":28,"ny":28,"refTime":"2025-02-26T09:00:00:Z","depth":"0","parameterNumber":3,"parameterNumberName":"V-component_of_CURRENTS"},"data":[0,0,0,0,0,0,0,0,0,0,0,0,0,0,0,0,0,0,0,0,0,0,0,0,0,0,0,0,0,0,0,0,0,0,0,0,0,0,0,0,0,0,0,0,0,0,0,0,0,0,0,0,0,0,0,0,0,0,-0.0267,-0.0267,0,-0.0204,-0.0203,-0.0203,-0.016,-0.0159,-0.0159,-0.0159,-0.0071,-0.0069,-0.0067,0,0,0,0,0,0,0,0,0,0,0,0,0,-0.0302,-0.0302,-0.0267,-0.0267,-0.0266,-0.0204,-0.0203,-0.0202,-0.016,-0.0159,-0.0159,-0.0159,-0.0072,-0.007,-0.0067,0,0,0,0,0,0,0,0,0,0,0,0,0,-0.0268,-0.0302,-0.0267,-0.0237,-0.0234,-0.0204,-0.0203,-0.0202,-0.016,-0.0159,-0.0159,-0.0159,-0.0073,-0.007,-0.0067,-0.0057,0,0,-0.0058,-0.0056,0,0,0,0,0,0,0,0,-0.027,-0.0266,-0.0242,-0.0239,-0.0235,-0.0189,-0.0183,-0.0152,-0.016,-0.0188,-0.0159,-0.0158,-0.0109,-0.0103,-0.0092,-0.0053,-0.0049,-0.0057,-0.0055,-0.0054,-0.0053,0,0,0,0,0,0,0,-0.0272,-0.0269,-0.0242,-0.0242,-0.0237,-0.021,-0.0205,-0.0177,-0.0151,-0.0185,-0.0182,-0.0175,-0.0107,-0.0095,-0.009,-0.0048,-0.0057,-0.0055,-0.0053,-0.0051,0.001,0.001,0,0,0,0,0,0,-0.0283,-0.0271,-0.0244,-0.024,-0.0252,-0.021,-0.0204,-0.0205,-0.0152,-0.0144,-0.0176,-0.0174,-0.0101,-0.0093,-0.0087,-0.0071,-0.0054,-0.0051,-0.0049,0.0011,0.001,0.001,0,0,0,0,0,0,-0.0285,-0.0282,-0.0247,-0.0254,-0.0247,-0.021,-0.021,-0.0204,-0.0191,-0.0145,-0.0136,-0.0171,-0.01,-0.0091,-0.0067,-0.0067,-0.005,-0.0047,0.0011,0.0011,0.001,-0.0039,0,0,0,0,0,0,-0.0286,-0.0283,-0.0289,-0.0255,-0.0248,-0.0236,-0.0211,-0.0203,-0.0188,-0.0184,-0.0138,-0.0129,-0.0099,-0.0072,-0.0064,-0.0062,-0.0045,0.0011,0.0011,0.001,-0.0037,-0.0041,-0.0044,0,0,0,0,0,-0.0288,-0.0301,-0.029,-0.0286,-0.0257,-0.0236,-0.023,-0.0201,-0.0188,-0.0188,-0.0157,-0.0131,-0.0068,-0.007,-0.006,-0.0058,0.0011,0.0011,0.001,-0.0036,-0.004,-0.0044,0,0,0,0,0,0,-0.0321,-0.0297,-0.0284,-0.029,-0.0266,-0.0229,-0.0227,-0.0206,-0.0181,-0.0178,-0.0134,-0.0123,-0.0103,-0.0075,-0.0078,-0.0041,-0.0024,-0.0022,-0.0062,-0.0066,-0.007,-0.0083,-0.0042,0,0,0,0,0,-0.0332,-0.0334,-0.0303,-0.0308,-0.0299,-0.0263,-0.0252,-0.0233,-0.0205,-0.0193,-0.016,-0.0126,-0.0097,-0.0079,-0.0052,-0.0032,0.0015,-0.0024,-0.0027,-0.0031,-0.0036,0.0028,0.003,0.0009,0.0009,0.0009,0,0,-0.0345,-0.0333,-0.0334,-0.0315,-0.0295,-0.029,-0.0256,-0.0244,-0.0237,-0.0188,-0.0172,-0.0139,-0.0096,-0.0075,-0.0063,-0.0051,0.0003,-0.0031,-0.0034,-0.0038,0.0028,0.003,0.0032,0.0008,0.0009,0.0009,0,0,-0.0376,-0.0364,-0.0375,-0.036,-0.0336,-0.0313,-0.0312,-0.0278,-0.026,-0.024,-0.0204,-0.0171,-0.0131,-0.0096,-0.0074,-0.008,-0.0021,-0.0073,-0.0096,-0.0034,-0.0032,-0.0029,0.0047,0.0057,-0.007,-0.007,-0.007,0,-0.0393,-0.0403,-0.0374,-0.038,-0.0372,-0.0328,-0.0336,-0.0311,-0.0273,-0.0258,-0.0244,-0.0175,-0.0139,-0.0103,-0.0107,-0.0087,-0.004,-0.0084,-0.0038,-0.0035,-0.0031,0.0046,0.0057,-0.0073,-0.0072,-0.0072,-0.0072,0,-0.0428,-0.0435,-0.044,-0.0432,-0.042,-0.042,-0.0383,-0.0368,-0.034,-0.0309,-0.0271,-0.0219,-0.0175,-0.0158,-0.0135,-0.0095,-0.0064,-0.0053,-0.0028,-0.0032,0.005,0.0063,-0.0076,-0.0075,-0.0075,-0.0074,0,0,-0.0467,-0.0467,-0.0468,-0.0475,-0.0449,-0.0444,-0.0431,-0.0404,-0.0391,-0.0346,-0.0321,-0.0269,-0.0232,-0.0206,-0.0163,-0.0112,-0.004,-0.0079,-0.0075,-0.0005,0.0111,0.0139,0.0157,-0.0022,-0.0021,-0.0019,0.0163,0,-0.0502,-0.0533,-0.0515,-0.0536,-0.0547,-0.0505,-0.0497,-0.0464,-0.0424,-0.0388,-0.0321,-0.0285,-0.0251,-0.0229,-0.0172,-0.0078,-0.0012,-0.009,0.0105,0.0111,0.0135,0.017,0.0204,0.0369,0.0176,0.0178,0.018,0,-0.0538,-0.0555,-0.0588,-0.059,-0.0589,-0.0591,-0.0564,-0.0549,-0.0484,-0.0451,-0.0395,-0.034,-0.0259,-0.0233,-0.006,-0.0112,-0.0008,0.007,0.0079,0.0129,0.0162,0.0339,0.04,0.0519,0.02,0.0199,0.0197,0,-0.0583,-0.0602,-0.0633,-0.0635,-0.0629,-0.063,-0.0619,-0.057,-0.0554,-0.0487,-0.0463,-0.0359,-0.0298,-0.017,-0.0011,-0.0031,0.0189,0.0189,0.032,0.0325,0.0403,0.0411,0.06,0.0317,0.0317,0.0316,0.0316,0,-0.0629,-0.0651,-0.0659,-0.0677,-0.0705,-0.0678,-0.0685,-0.0657,-0.0606,-0.0579,-0.05,-0.0445,-0.0282,-0.0141,-0.0004,0.0207,0.0207,0.0329,0.0374,0.0388,0.0392,0.0537,0.0568,0.0323,0.0322,0.032,0.0319,0,-0.0672,-0.0679,-0.0716,-0.0726,-0.0731,-0.0749,-0.0738,-0.0736,-0.0684,-0.0642,-0.0624,-0.0487,-0.03,-0.0121,0.0114,0.0225,0.0501,0.0488,0.0497,0.0539,0.0741,0.0766,0.0992,0.1078,0.0662,0.0664,0.0665,0,-0.0697,-0.0723,-0.0759,-0.0786,-0.0793,-0.0812,-0.0823,-0.0782,-0.0769,-0.0659,-0.0637,-0.046,-0.0312,0.004,0.0269,0.0535,0.0618,0.0708,0.0665,0.0772,0.0835,0.0848,0.0904,0.0769,0.0771,0.0773,0.0775,0,-0.0741,-0.0754,-0.0785,-0.0844,-0.0872,-0.0897,-0.0901,-0.0902,-0.0834,-0.0762,-0.0625,-0.0494,-0.0165,0.0147,0.0464,0.0618,0.0792,0.0752,0.0872,0.0942,0.0962,0.1058,0.0635,0.0791,0.0789,0.0788,0.0787,0.0787,-0.0761,-0.08,-0.0844,-0.0895,-0.0932,-0.0964,-0.0971,-0.094,-0.0885,-0.0721,-0.0598,-0.0298,0.005,0.0505,0.0666,0.0991,0.0951,0.1088,0.1118,0.1129,0.1183,0.079,0.0975,0.0975,0.0974,0.0974,0.0973,0,-0.0777,-0.0828,-0.0889,-0.0948,-0.0992,-0.0997,-0.1005,-0.0964,-0.0876,-0.0624,-0.0424,0.0097,0.0454,0.0787,0.1178,0.1349,0.1384,0.1433,0.1472,0.1517,0.1199,0.1172,0.1395,0.1395,0.1395,0.1395,0.1395,0.1395,-0.0777,-0.0855,-0.0895,-0.0978,-0.1014,-0.103,-0.1025,-0.0924,-0.0736,-0.0317,0.0083,0.0388,0.0791,0.1284,0.1633,0.1673,0.1819,0.1804,0.1883,0.1658,0.1627,0.1598,0.1584,0.1889,0.189,0.2204,0.2207,0.2209]}],[{"header":{"parameterUnit":"m.s-1","parameterCategory":2,"la1":30.2991,"la2":30.254,"lo1":-89.0895,"lo2":-89.0444,"dy":0.0017,"dx":0.0017,"nx":28,"ny":28,"refTime":"2025-02-26T09:00:00:Z","depth":"2","parameterNumber":2,"parameterNumberName":"U-component_of_CURRENTS"},"data":[0,0,0,0,0,0,0,0,0,0,0,0,0,0,0,0,0,0,0,0,0,0,0,0,0,0,0,0,0,0,0,0,0,0,0,0,0,0,0,0,0,0,0,0,0,0,0,0,0,0,0,0,0,0,0,0,0,0,-0.2059,-0.2059,0,-0.2089,-0.2089,-0.2089,-0.208,-0.208,-0.208,-0.2079,-0.2074,-0.2075,-0.2075,0,0,0,0,0,0,0,0,0,0,0,0,0,-0.1986,-0.1988,-0.2059,-0.2059,-0.206,-0.2089,-0.2089,-0.2089,-0.208,-0.208,-0.2079,-0.2079,-0.2074,-0.2075,-0.2075,0,0,0,0,0,0,0,0,0,0,0,0,0,-0.2015,-0.1988,-0.2059,-0.2061,-0.2061,-0.2088,-0.2089,-0.2089,-0.2081,-0.208,-0.2079,-0.2079,-0.2074,-0.2075,-0.2075,-0.209,0,0,-0.2076,-0.2076,0,0,0,0,0,0,0,0,-0.2014,-0.2018,-0.206,-0.2061,-0.2061,-0.2082,-0.2062,-0.2088,-0.2081,-0.2071,-0.2079,-0.2078,-0.2076,-0.2076,-0.208,-0.209,-0.209,-0.2076,-0.2077,-0.2077,-0.2077,0,0,0,0,0,0,0,-0.2012,-0.2016,-0.2069,-0.2061,-0.2062,-0.2057,-0.2061,-0.2067,-0.2074,-0.2072,-0.2072,-0.2079,-0.2075,-0.208,-0.208,-0.209,-0.2076,-0.2077,-0.2077,-0.2077,-0.2085,-0.2085,0,0,0,0,0,0,-0.2014,-0.2015,-0.2068,-0.207,-0.2038,-0.2059,-0.2063,-0.2074,-0.2075,-0.2075,-0.2079,-0.2078,-0.208,-0.208,-0.208,-0.209,-0.2077,-0.2077,-0.2077,-0.2085,-0.2085,-0.2085,0,0,0,0,0,0,-0.2012,-0.2018,-0.2066,-0.2044,-0.205,-0.2062,-0.2074,-0.2075,-0.2081,-0.2081,-0.208,-0.2084,-0.2079,-0.2079,-0.2084,-0.209,-0.2077,-0.2078,-0.2085,-0.2085,-0.2085,-0.2116,0,0,0,0,0,0,-0.201,-0.2018,-0.2023,-0.2044,-0.2051,-0.2084,-0.2075,-0.2076,-0.2087,-0.2086,-0.2085,-0.2084,-0.2079,-0.2084,-0.2085,-0.2091,-0.2078,-0.2085,-0.2085,-0.2085,-0.2115,-0.2117,-0.2119,0,0,0,0,0,-0.2007,-0.202,-0.2024,-0.203,-0.206,-0.2084,-0.2088,-0.2092,-0.2088,-0.2093,-0.209,-0.2084,-0.2083,-0.2084,-0.2085,-0.2092,-0.2085,-0.2085,-0.2085,-0.2114,-0.2116,-0.2119,0,0,0,0,0,0,-0.1989,-0.2021,-0.2025,-0.2046,-0.2064,-0.2084,-0.209,-0.2096,-0.2099,-0.2096,-0.2091,-0.209,-0.2096,-0.2088,-0.209,-0.2091,-0.208,-0.2081,-0.2102,-0.2104,-0.2106,-0.21,-0.2078,0,0,0,0,0,-0.199,-0.2006,-0.2035,-0.2048,-0.206,-0.2076,-0.2085,-0.2092,-0.2101,-0.2102,-0.2103,-0.2098,-0.2097,-0.2096,-0.2095,-0.2102,-0.2085,-0.2103,-0.2105,-0.2107,-0.2101,-0.2093,-0.2094,-0.2084,-0.2084,-0.2084,0,0,-0.1986,-0.2005,-0.2013,-0.2045,-0.2058,-0.2077,-0.2079,-0.2098,-0.2109,-0.2101,-0.2111,-0.2109,-0.2101,-0.2106,-0.2106,-0.21,-0.2097,-0.2106,-0.2108,-0.2101,-0.2093,-0.2095,-0.2095,-0.2084,-0.2084,-0.2084,0,0,-0.1984,-0.2005,-0.2017,-0.2036,-0.2063,-0.2078,-0.2085,-0.211,-0.2115,-0.213,-0.2122,-0.2123,-0.2127,-0.212,-0.2117,-0.2128,-0.2109,-0.2127,-0.2132,-0.2125,-0.2126,-0.2127,-0.2094,-0.2091,-0.2126,-0.2126,-0.2126,0,-0.1976,-0.1999,-0.2022,-0.2041,-0.2056,-0.2079,-0.2095,-0.2109,-0.213,-0.2136,-0.2133,-0.2136,-0.2131,-0.2132,-0.2132,-0.2133,-0.2117,-0.2128,-0.2129,-0.2129,-0.2129,-0.2095,-0.2092,-0.2127,-0.2127,-0.2127,-0.2127,0,-0.1984,-0.2004,-0.2014,-0.2045,-0.2065,-0.2084,-0.2112,-0.2129,-0.2139,-0.215,-0.2159,-0.2155,-0.2153,-0.2153,-0.2146,-0.2145,-0.2129,-0.2136,-0.2126,-0.2132,-0.2096,-0.2092,-0.2129,-0.2129,-0.2128,-0.2128,0,0,-0.1955,-0.2009,-0.2011,-0.2026,-0.207,-0.2085,-0.2112,-0.2139,-0.2149,-0.2166,-0.2174,-0.2174,-0.2173,-0.2167,-0.2162,-0.2154,-0.2139,-0.2145,-0.2144,-0.2116,-0.2105,-0.2007,-0.1993,-0.2151,-0.2151,-0.2151,-0.2075,0,-0.195,-0.1981,-0.2013,-0.2038,-0.2057,-0.2093,-0.2114,-0.2142,-0.216,-0.2174,-0.2177,-0.2181,-0.2179,-0.2176,-0.2171,-0.2155,-0.2132,-0.2157,-0.2099,-0.2096,-0.2013,-0.1987,-0.1862,-0.1776,-0.2071,-0.207,-0.207,0,-0.194,-0.1965,-0.1991,-0.2037,-0.2048,-0.2066,-0.2102,-0.2126,-0.2158,-0.2171,-0.2183,-0.2189,-0.2185,-0.2179,-0.2148,-0.2167,-0.213,-0.2111,-0.2108,-0.2003,-0.1991,-0.1819,-0.1758,-0.2063,-0.2064,-0.2064,-0.2065,0,-0.1895,-0.1945,-0.1963,-0.198,-0.2037,-0.2051,-0.2078,-0.2117,-0.2134,-0.2165,-0.2173,-0.2184,-0.2173,-0.2157,-0.2113,-0.2136,-0.2062,-0.2092,-0.1961,-0.1954,-0.1825,-0.1805,-0.2048,-0.2048,-0.2048,-0.2049,-0.2049,0,-0.1871,-0.1882,-0.1942,-0.195,-0.1967,-0.202,-0.2037,-0.2069,-0.2109,-0.2118,-0.216,-0.2156,-0.2168,-0.2132,-0.2105,-0.2004,-0.2052,-0.1943,-0.1924,-0.1829,-0.1812,-0.205,-0.2052,-0.2046,-0.2046,-0.2047,-0.2047,0,-0.1808,-0.1853,-0.1871,-0.1929,-0.1944,-0.1951,-0.2005,-0.2016,-0.2067,-0.2079,-0.2087,-0.2123,-0.2078,-0.2054,-0.2007,-0.1965,-0.1899,-0.1843,-0.1713,-0.168,-0.1801,-0.1805,-0.171,-0.1706,-0.1702,-0.1699,-0.1697,0,-0.1776,-0.178,-0.1833,-0.184,-0.1862,-0.1889,-0.1905,-0.1975,-0.1993,-0.2047,-0.2041,-0.202,-0.1966,-0.1857,-0.1781,-0.1682,-0.1768,-0.1516,-0.1537,-0.1773,-0.1765,-0.1774,-0.1783,-0.1377,-0.1372,-0.1368,-0.1365,0,-0.1702,-0.1722,-0.1737,-0.1755,-0.1771,-0.1791,-0.1825,-0.1835,-0.1911,-0.192,-0.1911,-0.1873,-0.1772,-0.1612,-0.1487,-0.1429,-0.1532,-0.143,-0.1701,-0.1482,-0.1452,-0.1447,-0.1468,-0.1329,-0.1333,-0.1335,-0.1337,-0.1339,-0.1631,-0.1622,-0.1643,-0.1647,-0.1668,-0.1669,-0.1645,-0.1692,-0.1691,-0.1673,-0.1729,-0.1618,-0.1577,-0.1311,-0.1216,-0.1145,-0.126,-0.1224,-0.1239,-0.1258,-0.1233,-0.1199,-0.1022,-0.1024,-0.1025,-0.1027,-0.1028,0,-0.1528,-0.1529,-0.1532,-0.1531,-0.1505,-0.1556,-0.1564,-0.1516,-0.1468,-0.1469,-0.1425,-0.1241,-0.1108,-0.1067,-0.0895,-0.0851,-0.0874,-0.0824,-0.0872,-0.0907,-0.0937,-0.0901,-0.0599,-0.0598,-0.0596,-0.0595,0,0,-0.1468,-0.1433,-0.1434,-0.1358,-0.1356,-0.1277,-0.1251,-0.12,-0.1167,-0.1073,-0.1011,-0.1056,-0.1038,-0.0833,-0.0771,-0.0656,-0.0779,-0.0618,-0.0961,-0.1053,-0.1083,-0.1162,-0.1141,0,0,0,0,0]},{"header":{"parameterUnit":"m.s-1","parameterCategory":2,"la1":30.2991,"la2":30.254,"lo1":-89.0895,"lo2":-89.0444,"dy":0.0017,"dx":0.0017,"nx":28,"ny":28,"refTime":"2025-02-26T09:00:00:Z","depth":"2","parameterNumber":3,"parameterNumberName":"V-component_of_CURRENTS"},"data":[0,0,0,0,0,0,0,0,0,0,0,0,0,0,0,0,0,0,0,0,0,0,0,0,0,0,0,0,0,0,0,0,0,0,0,0,0,0,0,0,0,0,0,0,0,0,0,0,0,0,0,0,0,0,0,0,0,0,-0.0338,-0.0338,0,-0.0283,-0.0283,-0.0282,-0.0244,-0.0244,-0.0244,-0.0244,-0.0163,-0.0161,-0.0159,0,0,0,0,0,0,0,0,0,0,0,0,0,-0.0365,-0.0365,-0.0338,-0.0338,-0.0337,-0.0284,-0.0283,-0.0282,-0.0244,-0.0244,-0.0244,-0.0244,-0.0163,-0.0161,-0.0159,0,0,0,0,0,0,0,0,0,0,0,0,0,-0.0336,-0.0365,-0.0338,-0.0312,-0.0309,-0.0284,-0.0283,-0.0282,-0.0244,-0.0244,-0.0244,-0.0243,-0.0164,-0.0161,-0.0158,-0.0148,0,0,-0.015,-0.0148,0,0,0,0,0,0,0,0,-0.0337,-0.0335,-0.0317,-0.0314,-0.0311,-0.0271,-0.0262,-0.0236,-0.0245,-0.0269,-0.0244,-0.0243,-0.0197,-0.0191,-0.0182,-0.0144,-0.0141,-0.0149,-0.0148,-0.0146,-0.0146,0,0,0,0,0,0,0,-0.0339,-0.0337,-0.0316,-0.0316,-0.0312,-0.0287,-0.0283,-0.0257,-0.0235,-0.0267,-0.0264,-0.0258,-0.0195,-0.0185,-0.0179,-0.014,-0.0149,-0.0147,-0.0145,-0.0144,-0.0081,-0.0082,0,0,0,0,0,0,-0.035,-0.0339,-0.0318,-0.0315,-0.0324,-0.0287,-0.0283,-0.0284,-0.0236,-0.0228,-0.0259,-0.0257,-0.019,-0.0183,-0.0176,-0.0156,-0.0146,-0.0144,-0.0142,-0.0081,-0.0081,-0.0082,0,0,0,0,0,0,-0.0351,-0.0349,-0.032,-0.0325,-0.032,-0.0288,-0.0289,-0.0283,-0.0272,-0.023,-0.0222,-0.0254,-0.0189,-0.018,-0.0157,-0.0153,-0.0142,-0.014,-0.0081,-0.0081,-0.0081,-0.0119,0,0,0,0,0,0,-0.0352,-0.035,-0.0355,-0.0326,-0.032,-0.0311,-0.0289,-0.0282,-0.0269,-0.0266,-0.0223,-0.0216,-0.0188,-0.0161,-0.0154,-0.0149,-0.0137,-0.0081,-0.0081,-0.0081,-0.0118,-0.0121,-0.0123,0,0,0,0,0,-0.0353,-0.0366,-0.0356,-0.0353,-0.0329,-0.0311,-0.0306,-0.0281,-0.027,-0.0269,-0.024,-0.0217,-0.0157,-0.0159,-0.0151,-0.0145,-0.0081,-0.0081,-0.0081,-0.0117,-0.012,-0.0123,0,0,0,0,0,0,-0.0381,-0.0362,-0.0351,-0.0357,-0.0337,-0.0305,-0.0303,-0.0285,-0.0262,-0.0259,-0.0219,-0.0209,-0.0187,-0.0163,-0.0167,-0.0127,-0.0114,-0.0113,-0.0145,-0.0147,-0.015,-0.0162,-0.0135,0,0,0,0,0,-0.039,-0.0394,-0.0368,-0.0373,-0.0366,-0.0335,-0.0325,-0.0308,-0.0283,-0.0272,-0.0242,-0.021,-0.0181,-0.0163,-0.0137,-0.0116,-0.0081,-0.0106,-0.0109,-0.0111,-0.0115,-0.0061,-0.0059,-0.0082,-0.0082,-0.0082,0,0,-0.0402,-0.0393,-0.0394,-0.0379,-0.0362,-0.0357,-0.0328,-0.0318,-0.031,-0.0267,-0.025,-0.0219,-0.0179,-0.0156,-0.0143,-0.0134,-0.0085,-0.0111,-0.0113,-0.0116,-0.0061,-0.0058,-0.0056,-0.0082,-0.0082,-0.0082,0,0,-0.0429,-0.042,-0.0431,-0.0418,-0.0398,-0.0377,-0.0377,-0.0347,-0.0329,-0.031,-0.0276,-0.0243,-0.0205,-0.0169,-0.0147,-0.0147,-0.0103,-0.0141,-0.0158,-0.0106,-0.0103,-0.01,-0.0049,-0.0042,-0.0138,-0.0138,-0.0138,0,-0.0444,-0.0454,-0.0431,-0.0436,-0.0429,-0.039,-0.0397,-0.0373,-0.0339,-0.0323,-0.0312,-0.0244,-0.0208,-0.0168,-0.0169,-0.0151,-0.0118,-0.015,-0.0109,-0.0105,-0.0102,-0.005,-0.0041,-0.014,-0.014,-0.014,-0.014,0,-0.0476,-0.0482,-0.0487,-0.0481,-0.047,-0.047,-0.0435,-0.042,-0.0394,-0.0365,-0.0326,-0.0275,-0.0232,-0.0214,-0.0192,-0.0151,-0.0134,-0.0121,-0.0102,-0.0102,-0.0047,-0.0037,-0.0143,-0.0142,-0.0142,-0.0141,0,0,-0.0512,-0.0511,-0.0512,-0.0518,-0.0494,-0.049,-0.0475,-0.0447,-0.0434,-0.0391,-0.0366,-0.0309,-0.0276,-0.0249,-0.0208,-0.0163,-0.0107,-0.0139,-0.0135,-0.009,0.0009,0.0028,0.0041,-0.0088,-0.0086,-0.0085,0.0039,0,-0.0542,-0.0571,-0.0554,-0.057,-0.058,-0.0541,-0.0531,-0.0499,-0.0461,-0.0427,-0.036,-0.0324,-0.029,-0.0269,-0.0216,-0.0137,-0.0084,-0.0142,0.0004,0.0008,0.0024,0.0052,0.003,0.014,0.0049,0.0051,0.0052,0,-0.0576,-0.0591,-0.062,-0.0619,-0.0618,-0.0618,-0.0591,-0.0574,-0.0512,-0.0481,-0.0426,-0.0374,-0.0298,-0.0273,-0.0128,-0.0169,-0.0087,-0.0023,-0.0016,0.0021,0.0045,0.0125,0.0161,0.0069,0.0068,0.0066,0.0065,0,-0.0618,-0.0633,-0.066,-0.0661,-0.0653,-0.0653,-0.0642,-0.0594,-0.0577,-0.0513,-0.0491,-0.0395,-0.0342,-0.0233,-0.0099,-0.0113,0.0062,0.0066,0.0165,0.0168,0.0188,0.0189,0.0171,0.0171,0.017,0.017,0.017,0,-0.0659,-0.0678,-0.0685,-0.0701,-0.0726,-0.0699,-0.0704,-0.0676,-0.0628,-0.0604,-0.0524,-0.0476,-0.0331,-0.0215,-0.01,0.0068,0.0071,0.017,0.0204,0.0174,0.0173,0.0137,0.0131,0.0175,0.0174,0.0173,0.0172,0,-0.0701,-0.0706,-0.0738,-0.0746,-0.075,-0.0767,-0.0755,-0.0752,-0.0702,-0.0666,-0.0649,-0.0524,-0.0369,-0.0216,-0.0022,0.0072,0.0225,0.0284,0.0236,0.0262,0.0295,0.0286,0.0406,0.0407,0.0409,0.041,0.0411,0,-0.0725,-0.0748,-0.078,-0.0804,-0.0811,-0.0828,-0.0837,-0.0797,-0.0784,-0.0688,-0.0669,-0.052,-0.0399,-0.011,0.008,0.0295,0.0289,0.0389,0.036,0.0299,0.0321,0.0309,0.0298,0.0378,0.0379,0.0379,0.038,0,-0.0766,-0.0779,-0.0805,-0.0862,-0.0887,-0.0908,-0.0911,-0.0912,-0.0851,-0.079,-0.0676,-0.0569,-0.0302,-0.0066,0.0191,0.0311,0.0348,0.0407,0.038,0.031,0.0281,0.0298,0.0288,0.0385,0.0384,0.0384,0.0384,0.0383,-0.0789,-0.0823,-0.0863,-0.0912,-0.0945,-0.0974,-0.0982,-0.0955,-0.091,-0.0794,-0.0684,-0.0485,-0.0285,0.0098,0.0272,0.043,0.0425,0.0463,0.0459,0.0455,0.0417,0.0391,0.051,0.051,0.051,0.051,0.051,0,-0.0815,-0.0856,-0.0909,-0.0964,-0.1005,-0.1009,-0.1016,-0.0987,-0.0917,-0.0778,-0.0627,-0.0364,-0.0106,0.0103,0.0357,0.0498,0.0478,0.0518,0.0462,0.0456,0.0452,0.0411,0.0504,0.0504,0.0504,0.0505,0,0,-0.0832,-0.0889,-0.092,-0.0996,-0.1032,-0.1057,-0.1054,-0.0981,-0.0877,-0.0711,-0.0543,-0.0335,-0.009,0.009,0.0265,0.0392,0.0383,0.0401,0.0392,0.0299,0.0293,0.0409,0.034,0,0,0,0,0]}],[{"header":{"parameterUnit":"m.s-1","parameterCategory":2,"la1":30.2991,"la2":30.254,"lo1":-89.0895,"lo2":-89.0444,"dy":0.0017,"dx":0.0017,"nx":28,"ny":28,"refTime":"2025-02-26T09:00:00:Z","depth":"4","parameterNumber":2,"parameterNumberName":"U-component_of_CURRENTS"},"data":[0,0,0,0,0,0,0,0,0,0,0,0,0,0,0,0,0,0,0,0,0,0,0,0,0,0,0,0,0,0,0,0,0,0,0,0,0,0,0,0,0,0,0,0,0,0,0,0,0,0,0,0,0,0,0,0,0,0,-0.1447,-0.1448,0,-0.1503,-0.1504,-0.1504,-0.1542,-0.1543,-0.1543,-0.1543,-0.1609,-0.1611,-0.1612,0,0,0,0,0,0,0,0,0,0,0,0,0,-0.1369,-0.137,-0.1447,-0.1448,-0.1449,-0.1503,-0.1504,-0.1504,-0.1542,-0.1543,-0.1543,-0.1544,-0.1609,-0.161,-0.1612,0,0,0,0,0,0,0,0,0,0,0,0,0,-0.1411,-0.1371,-0.1447,-0.1475,-0.1478,-0.1503,-0.1504,-0.1504,-0.1542,-0.1543,-0.1543,-0.1544,-0.1608,-0.161,-0.1612,-0.1613,0,0,-0.1619,-0.162,0,0,0,0,0,0,0,0,-0.1408,-0.1413,-0.147,-0.1473,-0.1477,-0.1517,-0.15,-0.1542,-0.1542,-0.1517,-0.1543,-0.1544,-0.158,-0.1584,-0.1592,-0.1616,-0.1619,-0.1619,-0.162,-0.1621,-0.1622,0,0,0,0,0,0,0,-0.1405,-0.1411,-0.1468,-0.1471,-0.1475,-0.1484,-0.149,-0.1508,-0.1543,-0.1519,-0.1522,-0.153,-0.1582,-0.1589,-0.1593,-0.162,-0.1619,-0.1621,-0.1622,-0.1623,-0.1694,-0.1695,0,0,0,0,0,0,-0.1401,-0.1408,-0.1466,-0.147,-0.1445,-0.1485,-0.1492,-0.1503,-0.1543,-0.155,-0.153,-0.1532,-0.1586,-0.1591,-0.1596,-0.1655,-0.1621,-0.1623,-0.1624,-0.1694,-0.1695,-0.1695,0,0,0,0,0,0,-0.1399,-0.1405,-0.1464,-0.1441,-0.1449,-0.1486,-0.1497,-0.1504,-0.1537,-0.1551,-0.1558,-0.156,-0.1586,-0.1593,-0.1632,-0.1656,-0.1624,-0.1626,-0.1693,-0.1694,-0.1695,-0.1737,0,0,0,0,0,0,-0.1396,-0.1404,-0.1422,-0.1441,-0.1451,-0.1494,-0.1497,-0.1504,-0.154,-0.1544,-0.1579,-0.1584,-0.1587,-0.1628,-0.1634,-0.1658,-0.1627,-0.1692,-0.1693,-0.1695,-0.1735,-0.1739,-0.1743,0,0,0,0,0,-0.1393,-0.1411,-0.1422,-0.143,-0.147,-0.1495,-0.1501,-0.1527,-0.1541,-0.1559,-0.1582,-0.1584,-0.164,-0.1631,-0.1637,-0.1662,-0.1692,-0.1693,-0.1695,-0.1733,-0.1738,-0.1743,0,0,0,0,0,0,-0.1387,-0.1417,-0.143,-0.1457,-0.1482,-0.1502,-0.1524,-0.1541,-0.1574,-0.1586,-0.1598,-0.1605,-0.1646,-0.1646,-0.1636,-0.1684,-0.1664,-0.1667,-0.1691,-0.1697,-0.1701,-0.1693,-0.1629,0,0,0,0,0,-0.1393,-0.1415,-0.1442,-0.1465,-0.148,-0.1507,-0.1526,-0.1545,-0.1571,-0.1587,-0.1612,-0.1633,-0.1651,-0.1669,-0.1685,-0.1716,-0.1694,-0.1733,-0.1737,-0.1741,-0.1738,-0.1731,-0.1735,-0.17,-0.17,-0.17,0,0,-0.1399,-0.1417,-0.1432,-0.1466,-0.1488,-0.1513,-0.1521,-0.1557,-0.1583,-0.1588,-0.164,-0.1654,-0.1663,-0.1696,-0.1714,-0.1704,-0.1736,-0.1743,-0.1746,-0.1741,-0.1733,-0.1737,-0.1739,-0.1701,-0.1701,-0.1701,0,0,-0.1407,-0.1437,-0.1455,-0.1479,-0.1517,-0.1535,-0.1551,-0.1588,-0.1614,-0.1658,-0.1665,-0.1693,-0.173,-0.1737,-0.1743,-0.1779,-0.1759,-0.1789,-0.1809,-0.1803,-0.1806,-0.1808,-0.1771,-0.177,-0.1792,-0.1792,-0.1792,0,-0.1413,-0.1439,-0.1465,-0.1487,-0.1512,-0.1547,-0.1573,-0.1602,-0.165,-0.1671,-0.1681,-0.1732,-0.1745,-0.1772,-0.1784,-0.179,-0.1772,-0.1792,-0.1809,-0.181,-0.1812,-0.1774,-0.1771,-0.1794,-0.1794,-0.1794,-0.1794,0,-0.1425,-0.1459,-0.1473,-0.1513,-0.1543,-0.1574,-0.1614,-0.1654,-0.1691,-0.1714,-0.1762,-0.1778,-0.1804,-0.1815,-0.1814,-0.1834,-0.1812,-0.1814,-0.1795,-0.1818,-0.1776,-0.1773,-0.1798,-0.1797,-0.1796,-0.1796,0,0,-0.1403,-0.1469,-0.1477,-0.1504,-0.1563,-0.1585,-0.1639,-0.1686,-0.172,-0.1767,-0.1801,-0.1836,-0.1847,-0.1854,-0.1859,-0.1857,-0.185,-0.1844,-0.1843,-0.1806,-0.1816,-0.169,-0.1674,-0.1861,-0.1861,-0.1861,-0.1777,0,-0.1407,-0.145,-0.1486,-0.1538,-0.1565,-0.162,-0.1662,-0.1713,-0.1756,-0.1799,-0.1824,-0.1857,-0.1861,-0.1877,-0.1879,-0.1863,-0.1847,-0.1871,-0.1801,-0.1798,-0.1683,-0.1668,-0.1861,-0.1775,-0.1774,-0.1773,-0.1773,0,-0.1398,-0.1433,-0.1481,-0.1553,-0.1571,-0.1611,-0.1685,-0.1728,-0.179,-0.1823,-0.1862,-0.188,-0.1897,-0.1894,-0.1871,-0.1888,-0.1853,-0.1831,-0.1827,-0.1692,-0.1666,-0.1751,-0.1767,-0.1767,-0.1768,-0.1768,-0.1769,0,-0.1353,-0.1427,-0.1468,-0.1493,-0.1578,-0.1617,-0.1667,-0.1737,-0.1772,-0.1837,-0.1859,-0.189,-0.1897,-0.1881,-0.1841,-0.1861,-0.1791,-0.1811,-0.1657,-0.1647,-0.1768,-0.1767,-0.1776,-0.1776,-0.1776,-0.1776,-0.1776,0,-0.1325,-0.1361,-0.1456,-0.1476,-0.1529,-0.16,-0.1657,-0.171,-0.1777,-0.18,-0.1865,-0.1867,-0.1895,-0.1864,-0.1834,-0.1717,-0.1781,-0.1641,-0.1615,-0.1786,-0.1788,-0.1765,-0.1765,-0.1773,-0.1774,-0.1774,-0.1775,0,-0.1259,-0.1324,-0.1375,-0.1474,-0.1508,-0.1546,-0.1643,-0.1673,-0.1749,-0.1779,-0.1797,-0.1843,-0.1796,-0.1784,-0.1736,-0.1678,-0.1601,-0.154,-0.1694,-0.168,-0.1464,-0.1467,-0.1365,-0.136,-0.1356,-0.1352,-0.1349,0,-0.1224,-0.1245,-0.1355,-0.1387,-0.1435,-0.1507,-0.1546,-0.1645,-0.1671,-0.1741,-0.1733,-0.1725,-0.1732,-0.1546,-0.1567,-0.1471,-0.1455,-0.1407,-0.1463,-0.1436,-0.1421,-0.1431,-0.144,-0.1342,-0.1341,-0.134,-0.1338,0,-0.1152,-0.1204,-0.1245,-0.131,-0.1365,-0.1414,-0.1481,-0.1485,-0.1579,-0.1662,-0.1609,-0.1567,-0.1499,-0.145,-0.1368,-0.1316,-0.1444,-0.1362,-0.1371,-0.1423,-0.1407,-0.1399,-0.1413,-0.1323,-0.1325,-0.1327,-0.1328,0,-0.1094,-0.1107,-0.1169,-0.1212,-0.1278,-0.1293,-0.1347,-0.1363,-0.1396,-0.148,-0.1453,-0.1443,-0.1478,-0.1366,-0.1302,-0.1226,-0.1219,-0.1192,-0.1211,-0.1228,-0.1222,-0.1183,-0.0989,0,0,0,0,0,-0.1025,-0.1027,-0.1064,-0.1106,-0.1165,-0.1198,-0.1284,-0.1341,-0.143,-0.1348,-0.1396,-0.1326,-0.1232,-0.1236,-0.1122,-0.1239,-0.1225,-0.1105,-0.1207,-0.1239,-0.1257,-0.1263,0,0,0,0,0,0,-0.0974,-0.1007,-0.1023,-0.1001,-0.1006,-0.1055,-0.1101,-0.1169,-0.1136,-0.1226,-0.1173,-0.1239,-0.1159,-0.1253,-0.1089,-0.1087,-0.1122,-0.111,-0.1106,-0.1229,-0.1245,-0.1259,-0.1272,0,0,0,0,0]},{"header":{"parameterUnit":"m.s-1","parameterCategory":2,"la1":30.2991,"la2":30.254,"lo1":-89.0895,"lo2":-89.0444,"dy":0.0017,"dx":0.0017,"nx":28,"ny":28,"refTime":"2025-02-26T09:00:00:Z","depth":"4","parameterNumber":3,"parameterNumberName":"V-component_of_CURRENTS"},"data":[0,0,0,0,0,0,0,0,0,0,0,0,0,0,0,0,0,0,0,0,0,0,0,0,0,0,0,0,0,0,0,0,0,0,0,0,0,0,0,0,0,0,0,0,0,0,0,0,0,0,0,0,0,0,0,0,0,0,-0.0256,-0.0256,0,-0.0223,-0.0223,-0.0222,-0.0201,-0.0201,-0.02,-0.02,-0.0144,-0.0143,-0.0141,0,0,0,0,0,0,0,0,0,0,0,0,0,-0.0266,-0.0266,-0.0256,-0.0256,-0.0255,-0.0223,-0.0223,-0.0222,-0.0201,-0.0201,-0.02,-0.02,-0.0144,-0.0143,-0.0141,0,0,0,0,0,0,0,0,0,0,0,0,0,-0.025,-0.0266,-0.0256,-0.0241,-0.0239,-0.0223,-0.0223,-0.0222,-0.0201,-0.0201,-0.02,-0.02,-0.0145,-0.0143,-0.0141,-0.013,0,0,-0.0134,-0.0133,0,0,0,0,0,0,0,0,-0.0251,-0.0249,-0.0244,-0.0242,-0.024,-0.0216,-0.0206,-0.0191,-0.0201,-0.0215,-0.02,-0.02,-0.0166,-0.0163,-0.0156,-0.0128,-0.0125,-0.0134,-0.0133,-0.0132,-0.0131,0,0,0,0,0,0,0,-0.0252,-0.025,-0.0242,-0.0243,-0.0241,-0.0224,-0.0222,-0.0203,-0.0191,-0.0214,-0.0212,-0.0209,-0.0165,-0.0158,-0.0155,-0.0125,-0.0134,-0.0132,-0.0131,-0.013,-0.0082,-0.0082,0,0,0,0,0,0,-0.0259,-0.0252,-0.0244,-0.0242,-0.0246,-0.0225,-0.0222,-0.0224,-0.0192,-0.0187,-0.021,-0.0209,-0.0162,-0.0157,-0.0153,-0.0138,-0.0132,-0.013,-0.0129,-0.0082,-0.0082,-0.0082,0,0,0,0,0,0,-0.026,-0.0259,-0.0245,-0.0246,-0.0243,-0.0225,-0.0227,-0.0223,-0.0219,-0.0189,-0.0184,-0.021,-0.0162,-0.0156,-0.014,-0.0135,-0.0129,-0.0127,-0.0082,-0.0082,-0.0082,-0.0108,0,0,0,0,0,0,-0.026,-0.0259,-0.0266,-0.0247,-0.0243,-0.0241,-0.0227,-0.0223,-0.0218,-0.0216,-0.0187,-0.0182,-0.0161,-0.0143,-0.0138,-0.0132,-0.0125,-0.0082,-0.0082,-0.0082,-0.0108,-0.0109,-0.0111,0,0,0,0,0,-0.0261,-0.0271,-0.0267,-0.0266,-0.0252,-0.0242,-0.0239,-0.0224,-0.0218,-0.022,-0.02,-0.0183,-0.0139,-0.0142,-0.0135,-0.0129,-0.0082,-0.0082,-0.0082,-0.0107,-0.0109,-0.0111,0,0,0,0,0,0,-0.028,-0.027,-0.0264,-0.0271,-0.026,-0.0239,-0.024,-0.0229,-0.0215,-0.0214,-0.0184,-0.0178,-0.0161,-0.0144,-0.0147,-0.0115,-0.0107,-0.0105,-0.0128,-0.013,-0.0131,-0.0141,-0.0124,0,0,0,0,0,-0.0287,-0.0293,-0.0277,-0.0284,-0.028,-0.0261,-0.0256,-0.0246,-0.023,-0.0224,-0.0203,-0.0179,-0.0155,-0.0143,-0.0122,-0.0107,-0.0082,-0.0098,-0.0099,-0.0101,-0.0104,-0.0061,-0.0059,-0.0081,-0.0081,-0.0081,0,0,-0.0297,-0.0292,-0.0296,-0.0288,-0.0279,-0.0278,-0.0258,-0.0255,-0.0251,-0.0219,-0.0211,-0.0186,-0.0153,-0.0134,-0.0125,-0.012,-0.0082,-0.0101,-0.0102,-0.0105,-0.0061,-0.0058,-0.0056,-0.0081,-0.0081,-0.0081,0,0,-0.0317,-0.0315,-0.0325,-0.0319,-0.0309,-0.0296,-0.0297,-0.0279,-0.0268,-0.0256,-0.0228,-0.0201,-0.0175,-0.0143,-0.0124,-0.0122,-0.0093,-0.0118,-0.0132,-0.009,-0.0088,-0.0085,-0.0055,-0.005,-0.0118,-0.0118,-0.0118,0,-0.033,-0.034,-0.0326,-0.0333,-0.0331,-0.0306,-0.0314,-0.0298,-0.0276,-0.0266,-0.026,-0.0204,-0.0175,-0.0139,-0.0138,-0.0124,-0.0104,-0.0127,-0.0092,-0.0089,-0.0086,-0.0056,-0.005,-0.0119,-0.0119,-0.0119,-0.0119,0,-0.0354,-0.0363,-0.0369,-0.0369,-0.0364,-0.0368,-0.0345,-0.0336,-0.0321,-0.0299,-0.0268,-0.0225,-0.0192,-0.0174,-0.0156,-0.012,-0.0114,-0.01,-0.0088,-0.0085,-0.0054,-0.0047,-0.0121,-0.0121,-0.012,-0.012,0,0,-0.0378,-0.0386,-0.0389,-0.0397,-0.0385,-0.0385,-0.0376,-0.0358,-0.0351,-0.0319,-0.0301,-0.0249,-0.0224,-0.0201,-0.0166,-0.0129,-0.0088,-0.0113,-0.011,-0.0085,-0.0006,-0.0014,-0.0007,-0.007,-0.0068,-0.0068,0.0007,0,-0.0402,-0.0429,-0.0421,-0.044,-0.0451,-0.0426,-0.0421,-0.0399,-0.0374,-0.035,-0.0292,-0.0265,-0.0234,-0.0218,-0.0174,-0.011,-0.0071,-0.011,-0.001,-0.0007,-0.0016,0.0,-0.0064,0.0012,0.0014,0.0015,0.0016,0,-0.0426,-0.0442,-0.0472,-0.048,-0.0482,-0.0488,-0.0475,-0.0465,-0.0418,-0.0396,-0.0352,-0.031,-0.0246,-0.0223,-0.0111,-0.0141,-0.0079,-0.0029,-0.0024,-0.0018,-0.0003,0.0011,0.0028,0.0027,0.0026,0.0026,0.0025,0,-0.0453,-0.0475,-0.0503,-0.0507,-0.0511,-0.0518,-0.0516,-0.0484,-0.0474,-0.0426,-0.0411,-0.0332,-0.0291,-0.0204,-0.0099,-0.0106,0.0023,0.0032,0.0084,0.0084,0.008,0.0077,0.0112,0.0112,0.0112,0.0111,0.0111,0,-0.0478,-0.0501,-0.0524,-0.054,-0.0571,-0.0557,-0.0572,-0.0553,-0.0522,-0.0506,-0.0441,-0.0403,-0.0285,-0.0196,-0.0105,0.001,0.0024,0.0083,0.0105,0.0066,0.0061,0.0085,0.0081,0.0114,0.0113,0.0113,0.0112,0,-0.05,-0.0516,-0.0552,-0.0576,-0.0588,-0.061,-0.0619,-0.0621,-0.0588,-0.0564,-0.0551,-0.045,-0.0334,-0.0213,-0.0062,-0.0,0.0112,0.015,0.0094,0.0111,0.0143,0.0137,0.0209,0.021,0.021,0.021,0.021,0,-0.0512,-0.0535,-0.0587,-0.0617,-0.0634,-0.0664,-0.0681,-0.066,-0.0651,-0.0585,-0.0568,-0.046,-0.0381,-0.0168,-0.005,0.0118,0.0141,0.0186,0.0168,0.014,0.0155,0.0148,0.0141,0.0211,0.0211,0.0211,0.0211,0,-0.0532,-0.0557,-0.0588,-0.0656,-0.0693,-0.0722,-0.0739,-0.0736,-0.0696,-0.0671,-0.0562,-0.0449,-0.0317,-0.0158,-0.0029,0.0091,0.0148,0.019,0.019,0.0173,0.0144,0.0156,0.0149,0.0212,0.0212,0.0212,0.0212,0,-0.0545,-0.0577,-0.0628,-0.068,-0.0732,-0.076,-0.0768,-0.0737,-0.0715,-0.0631,-0.0593,-0.0442,-0.0348,-0.0171,-0.0049,0.0063,0.0086,0.011,0.0114,0.0114,0.006,0.0007,0.0056,0,0,0,0,0,-0.0551,-0.059,-0.0647,-0.0703,-0.0755,-0.078,-0.0793,-0.0785,-0.0748,-0.0672,-0.0625,-0.0492,-0.0295,-0.0202,-0.0089,-0.0066,0.0083,0.0065,0.0106,0.0219,0.0218,0.0169,0,0,0,0,0,0,-0.0558,-0.0613,-0.0644,-0.0707,-0.0747,-0.0793,-0.0802,-0.078,-0.0721,-0.0666,-0.055,-0.048,-0.0281,-0.0354,-0.0089,-0.0056,-0.0019,0.0164,0.0166,0.022,0.0218,0.0217,0.0167,0,0,0,0,0]}]]